Location: Fort Worth, Tx
(32.7431°N, 97.3695°W)
Time: 14:56:30
(UTC-04:00)

Transit 2A - Pass Details

Date: 27 February 2024
Orbit: 596 x 956 km, 66.7° (Epoch: 21 April)

Event Time Altitude Azimuth Distance (km) Brightness Sun altitude
Exits shadow 05:43:48 50° 22° (NNE) 967 6.6 -29.4°
Maximum altitude 05:44:44 58° 63° (ENE) 901 6.5 -29.2°
Drops below altitude 10° 05:50:14 10° 142° (SE) 2,437 8.9 -28.0°
Sets 05:52:51 0° 146° (SE) 3,425 9.7 -27.5°
